• In Czech Republic
  • List of Countries
  • For 7 days
  • Water Temperature
  • Satellite Maps
  • Weather Map
  • Weather Widgets
  • user-avatar
    Login

    Hourly Weather Warwick

    Today, 11 December, Monday

    Time Temperature Precipitation Wind Pressure Humidity
    00:00 -2°C° 0.3 mm 4 mps 731 mmHg 93%
    01:00 -2°C° 0.3 mm 5 mps 731 mmHg 93%
    02:00 -2°C° 0.3 mm 5 mps 732 mmHg 93%
    03:00 -3°C° 0.3 mm 6 mps 732 mmHg 92%
    04:00 -3°C° 0.1 mm 6 mps 732 mmHg 91%
    05:00 -3°C° 0.1 mm 6 mps 732 mmHg 90%
    06:00 -3°C° 0.1 mm 6 mps 732 mmHg 89%
    07:00 -3°C° 0.1 mm 6 mps 733 mmHg 89%
    08:00 -3°C° 0.1 mm 6 mps 733 mmHg 88%
    09:00 -4°C° 0.1 mm 6 mps 734 mmHg 87%
    10:00 -3°C° 0 mm 6 mps 734 mmHg 87%
    11:00 -3°C° 0 mm 6 mps 735 mmHg 86%
    12:00 -3°C° 0 mm 6 mps 735 mmHg 86%
    13:00 -3°C° 0 mm 6 mps 736 mmHg 86%
    14:00 -2°C° 0 mm 5 mps 736 mmHg 86%
    15:00 -4°C° 0 mm 5 mps 737 mmHg 85%
    16:00 -4°C° 0 mm 4 mps 738 mmHg 85%
    17:00 -4°C° 0 mm 4 mps 738 mmHg 85%
    18:00 -5°C° 0 mm 3 mps 739 mmHg 84%
    19:00 -5°C° 0 mm 3 mps 740 mmHg 85%
    20:00 -5°C° 0 mm 3 mps 741 mmHg 86%
    21:00 -5°C° 0 mm 3 mps 742 mmHg 87%
    22:00 -4°C° 0 mm 2 mps 742 mmHg 88%
    23:00 -4°C° 0 mm 2 mps 743 mmHg 89%

    Tomorrow, 12 December, Tuesday

    Time Temperature Precipitation Wind Pressure Humidity
    00:00 -4°C° 0 mm 2 mps 744 mmHg 90%
    01:00 -4°C° 0 mm 2 mps 745 mmHg 90%
    02:00 -4°C° 0 mm 2 mps 745 mmHg 90%
    03:00 -4°C° 0 mm 2 mps 746 mmHg 90%
    04:00 -4°C° 0 mm 2 mps 746 mmHg 90%
    05:00 -4°C° 0 mm 2 mps 747 mmHg 91%
    06:00 -4°C° 0 mm 2 mps 747 mmHg 91%
    07:00 -4°C° 0 mm 2 mps 748 mmHg 91%
    08:00 -3°C° 0 mm 2 mps 749 mmHg 91%
    09:00 -3°C° 0 mm 2 mps 749 mmHg 91%
    10:00 -2°C° 0 mm 2 mps 749 mmHg 91%
    11:00 -1°C° 0 mm 2 mps 750 mmHg 92%
    12:00 +1°C° 0 mm 2 mps 750 mmHg 93%
    13:00 +1°C° 0 mm 2 mps 750 mmHg 93%
    14:00 0°C° 0 mm 3 mps 750 mmHg 94%
    15:00 0°C° 0 mm 3 mps 750 mmHg 94%
    16:00 0°C° 0 mm 3 mps 751 mmHg 94%
    17:00 0°C° 0 mm 3 mps 751 mmHg 94%
    18:00 0°C° 0 mm 3 mps 751 mmHg 94%
    19:00 0°C° 0 mm 3 mps 751 mmHg 95%
    20:00 0°C° 0 mm 4 mps 750 mmHg 96%
    21:00 0°C° 0 mm 4 mps 750 mmHg 98%
    22:00 0°C° 0.1 mm 5 mps 749 mmHg 98%
    23:00 0°C° 0.1 mm 5 mps 749 mmHg 98%

    Day after tomorrow, 13 December, Wednesday

    Time Temperature Precipitation Wind Pressure Humidity
    00:00 +1°C° 0.1 mm 6 mps 748 mmHg 99%
    01:00 +1°C° 0.3 mm 6 mps 747 mmHg 99%
    02:00 +1°C° 0.3 mm 5 mps 747 mmHg 99%
    03:00 +2°C° 0.3 mm 5 mps 746 mmHg 99%
    04:00 +1°C° 0.2 mm 5 mps 746 mmHg 99%
    05:00 +1°C° 0.2 mm 5 mps 746 mmHg 98%
    06:00 +1°C° 0.2 mm 4 mps 746 mmHg 98%
    07:00 +1°C° 0.1 mm 4 mps 746 mmHg 98%
    08:00 +1°C° 0.1 mm 4 mps 746 mmHg 98%
    09:00 +1°C° 0.1 mm 5 mps 747 mmHg 97%
    10:00 +1°C° 0 mm 5 mps 747 mmHg 97%
    11:00 +1°C° 0 mm 5 mps 747 mmHg 97%
    12:00 +2°C° 0 mm 5 mps 747 mmHg 97%
    13:00 +2°C° 0 mm 5 mps 747 mmHg 96%
    14:00 +1°C° 0 mm 5 mps 747 mmHg 95%
    15:00 +1°C° 0 mm 5 mps 747 mmHg 94%
    16:00 +1°C° 0 mm 5 mps 747 mmHg 92%
    17:00 +1°C° 0 mm 5 mps 747 mmHg 89%
    18:00 0°C° 0 mm 5 mps 747 mmHg 87%
    19:00 0°C° 0 mm 5 mps 747 mmHg 87%
    20:00 0°C° 0 mm 4 mps 747 mmHg 87%
    21:00 -1°C° 0 mm 4 mps 747 mmHg 87%
    22:00 0°C° 0 mm 5 mps 746 mmHg 87%
    23:00 0°C° 0 mm 7 mps 744 mmHg 86%

    14 December, Thursday

    Time Temperature Precipitation Wind Pressure Humidity
    00:00 0°C° 0 mm 8 mps 743 mmHg 86%
    01:00 +1°C° 0.1 mm 8 mps 742 mmHg 88%
    02:00 +1°C° 0.1 mm 9 mps 740 mmHg 89%
    03:00 +2°C° 0.1 mm 9 mps 738 mmHg 90%
    04:00 +2°C° 1.8 mm 8 mps 737 mmHg 90%
    05:00 +2°C° 1.8 mm 6 mps 736 mmHg 89%
    06:00 +2°C° 1.8 mm 5 mps 735 mmHg 88%
    07:00 +1°C° 0 mm 5 mps 735 mmHg 85%
    08:00 +1°C° 0 mm 5 mps 736 mmHg 83%
    09:00 0°C° 0 mm 5 mps 736 mmHg 80%
    10:00 -1°C° 0 mm 6 mps 736 mmHg 79%
    11:00 +1°C° 0 mm 6 mps 736 mmHg 77%
    12:00 +1°C° 0 mm 6 mps 737 mmHg 76%
    13:00 +1°C° 0 mm 6 mps 737 mmHg 76%
    14:00 +1°C° 0 mm 6 mps 737 mmHg 77%
    15:00 +1°C° 0 mm 5 mps 737 mmHg 78%
    16:00 +1°C° 0 mm 5 mps 737 mmHg 80%
    17:00 0°C° 0 mm 5 mps 737 mmHg 82%
    18:00 0°C° 0 mm 5 mps 737 mmHg 84%
    19:00 0°C° 0 mm 5 mps 737 mmHg 84%
    20:00 0°C° 0 mm 5 mps 737 mmHg 83%
    21:00 0°C° 0 mm 5 mps 737 mmHg 83%
    22:00 0°C° 0.2 mm 5 mps 737 mmHg 85%
    23:00 0°C° 0.2 mm 4 mps 737 mmHg 87%

    15 December, Friday

    Time Temperature Precipitation Wind Pressure Humidity
    00:00 0°C° 0.2 mm 4 mps 737 mmHg 89%
    01:00 0°C° 0.1 mm 4 mps 738 mmHg 88%
    02:00 -1°C° 0.1 mm 4 mps 738 mmHg 86%
    03:00 -1°C° 0.1 mm 4 mps 739 mmHg 84%
    04:00 -1°C° 0.1 mm 4 mps 739 mmHg 85%
    05:00 -1°C° 0.1 mm 4 mps 740 mmHg 86%
    06:00 0°C° 0.1 mm 3 mps 741 mmHg 87%
    07:00 -1°C° 0 mm 4 mps 742 mmHg 86%
    08:00 -1°C° 0 mm 4 mps 743 mmHg 85%
    09:00 -1°C° 0 mm 5 mps 744 mmHg 84%
    10:00 0°C° 0 mm 5 mps 744 mmHg 81%
    11:00 +1°C° 0 mm 5 mps 745 mmHg 78%
    12:00 +1°C° 0 mm 5 mps 746 mmHg 75%
    13:00 +1°C° 0 mm 5 mps 746 mmHg 76%
    14:00 +1°C° 0 mm 5 mps 746 mmHg 78%
    15:00 +1°C° 0 mm 5 mps 747 mmHg 79%
    16:00 +1°C° 0 mm 5 mps 747 mmHg 80%
    17:00 0°C° 0 mm 5 mps 748 mmHg 81%
    18:00 0°C° 0 mm 5 mps 749 mmHg 81%
    19:00 0°C° 0 mm 5 mps 750 mmHg 82%
    20:00 -1°C° 0 mm 4 mps 750 mmHg 82%
    21:00 -1°C° 0 mm 4 mps 751 mmHg 83%
    22:00 -1°C° 0 mm 4 mps 752 mmHg 83%
    23:00 -1°C° 0 mm 4 mps 752 mmHg 84%

    16 December, Saturday

    Time Temperature Precipitation Wind Pressure Humidity
    00:00 -1°C° 0 mm 4 mps 752 mmHg 84%
    01:00 -2°C° 0 mm 4 mps 753 mmHg 85%
    02:00 -1°C° 0 mm 3 mps 753 mmHg 85%
    03:00 -1°C° 0 mm 3 mps 753 mmHg 86%
    04:00 -1°C° 0 mm 3 mps 754 mmHg 86%
    05:00 -1°C° 0 mm 3 mps 754 mmHg 87%
    06:00 -1°C° 0 mm 3 mps 754 mmHg 88%
    07:00 -1°C° 0 mm 2 mps 755 mmHg 88%
    08:00 -1°C° 0 mm 2 mps 755 mmHg 89%
    09:00 -1°C° 0 mm 2 mps 756 mmHg 89%
    10:00 +1°C° 0 mm 2 mps 756 mmHg 88%
    11:00 +2°C° 0 mm 2 mps 756 mmHg 87%
    12:00 +3°C° 0 mm 2 mps 756 mmHg 86%
    13:00 +3°C° 0 mm 2 mps 756 mmHg 88%
    14:00 +3°C° 0 mm 2 mps 756 mmHg 90%
    15:00 +3°C° 0 mm 2 mps 756 mmHg 92%
    16:00 +2°C° 0 mm 2 mps 756 mmHg 92%
    17:00 +1°C° 0 mm 2 mps 757 mmHg 92%
    18:00 +1°C° 0 mm 2 mps 757 mmHg 92%
    19:00 +1°C° 0 mm 2 mps 757 mmHg 92%
    20:00 +1°C° 0 mm 2 mps 758 mmHg 92%
    21:00 +1°C° 0 mm 2 mps 758 mmHg 91%
    22:00 +1°C° 0 mm 2 mps 758 mmHg 91%
    23:00 +1°C° 0 mm 2 mps 758 mmHg 91%
    Show more